Back to catalog

STARLINK-35049

AliveCommunicationsSSO
NORAD 65444·PAYLOAD·🇺🇸 United States

Launched Sep 3, 2025 from Vandenberg Space Force Base

Loading…

Next Passes (next 24 hours)

TLE

FreshSource: CelesTrak SupGP

Epoch: Sep 15, 2026, 03:19 UTC

1 65444C 25194L   26258.13868056 -.00033132  00000+0 -10285-2 0  2583
2 65444  97.2846 107.8552 0001764  92.5500 356.2137 15.33455079    18

Track STARLINK-35049 in real time with AllMySat

Download on the App Store